User: anonymous   Login
Location: Unspecified
(0.0000°N, 0.0000°E)
Time: 13:08:33
(UTC+00:00)
Language:

FIREBIRD 3 - Orbit

View from above orbital plane
View from above orbital plane
View from above satellite
View from above satellite

Ground track
Ground track

The orbit data is extracted from the following two-line orbital elements,

1 40377U 15003B   21015.55334798  .00001720  00000-0  67766-4 0  9999
2 40377  99.0838 125.1285 0119946 325.4576  33.8902 15.21243271329531
Epoch (UTC): 15 January 2021 13:16:49
Eccentricity: 0.0119946
inclination: 99.0838°
perigee height: 419 km
apogee height: 584 km
right ascension of ascending node: 125.1285°
argument of perigee: 325.4576°
revolutions per day: 15.21243271
mean anomaly at epoch: 33.8902°
orbit number at epoch: 32953

The dashed part of the orbit path shows where the satellite is in the earth's shadow,  

DLR